Find Starlink 1456

NORAD ID: 45673 Int'l Des: 2020-035 Owner: SPXS Country: US Constellation: starlink operational
LEOCIRCULAR

当前视图

正在加载3D地球...

About Starlink 1456

Starlink 1456 (NORAD 45673) is a starlink constellation satellite (v1.0) launched Jun 4, 2020 by SPXS of US. It operates in LEO, CIRCULAR orbit with a mass of 260.00 kg.

关于 Starlink 1456

正在加载描述...

即将过境

Passes for default location (London). Set your location on the main map for personalized predictions.

高度历史

Loading altitude history...

两行轨道根数

1 45673U 20035S 26171.50003471 .00457360 00000-0 36922-2 0 9991
2 45673 53.0400 266.2376 0001344 96.7102 199.2082 15.68927760 6006
Epoch: Jun 20, 2026 • Age: 24 hours

当前状态

高度 359.6 km
速度 7.70 km/s
星下点 4.99°N, 11.18°W
发射日期 Jun 4, 2020
运行时间 6 years
类型 internet

技术详情

分类 Payload
质量 260.00 kg
干质量 248.00 kg
总质量 260.00 kg
长度 0.20 m
直径 2.80 m
跨度 9.00 m
形状 Box + pan
制造商 SPXS
平台类型 Starlink
阶段状态 In Orbit
所有者/国家 SPXS/US

Most Searched